Airfield :
LOGIN :

Register | Disclaimer

   EN    FR    IT 

 










Legend :    VFR   Marginal VFR   IFR   Intensive IFR   Very Intensive IFR
Visi :
Ceiling :
>= 8 km
>= 3000ft
5 to 8 km
1000 to 3000 ft
1500m to 5 km
500 to 1000 ft
800 to 1500m
200 to 500 ft
< 800m
< 200 ft
Symbols :   Thunderstorms  Fog  Heavy snow  Heavy precipitations  Wind > 20 kt
SIGMETs :     Misc.  Thunderstorms  Icing  Turbulence  Mountain Waves  Volcanic Ashes







- Airport Elevation : 75 ft
- IATA code : YEO


EGDY - RNAS Yeovilton

CURRENT METAR :
  • 161650Z 30013KT 9999 FEW030 SCT045 20/10 Q1015 BLU NOSIG

EXPIRED METARs :
  • 161550Z 32011KT 9999 FEW035 SCT040 19/11 Q1014 BLU NOSIG
  • 161450Z 29016KT 9999 SCT045 20/10 Q1014 BLU NOSIG

TAF TAF EGDY
Valid from the 16 at 15:00 until the 17 at 00:00 UTC


161334Z 1615/1624 30010KT 9999 SCT030
No reported NOTAMs for that airfield.



MET'MAP, your aeronautical weather chart ! - Copyright ORBIFLY December 2007 - Disclaimer

ORBIFLY MET'MAP TEAM :

Programming & Development : Alexandra Zaïnal
Concept & Development : Baudouin d'Aumeries
Co-Development & Prog : Marc-Olivier Méhu
Technical & hardware support : Manuel Goepfert

Contact : metmap@orbifly.com




SOURCES & CREDITS :

   NOAA